Flag for Algeria Weather past 2 weeks in Constantine, Algeria

Now
68 °F

Clear.


Feels Like: 68 °F
Forecast: 70 / 93 °F
Wind: No wind

Location: Constantine Airport

Current Time: Sep 21, 2014 at 7:32:41 AM

Latest Report: Sep 21, 2014 at 7:00 AM


Visibility: 5 mi

Pressure: 30.21 "Hg

Humidity: 49%

Dew point: 48 °F

Location of ConstantineLocation

Historic Weather in Constantine — Graph

°F

Constantine temperature yesterday

Maximum temperature yesterday: 95 °F (at 12:30 PM)
Minimum temperature yesterday: 72 °F (at 5:00 AM)
Average temperature yesterday: 82 °F

Past Weeks' High & Low Weather Summary

 TemperatureHumidityPressure
High106 °F (Sep 19, 3:00 PM)94% (Sep 11, 6:30 AM)30.24 "Hg (Sep 11, 6:30 AM)
Low59 °F (Sep 13, 5:30 AM)9% (Sep 19, 3:00 PM)29.89 "Hg (Sep 17, 2:30 PM)
Average78 °F45%30.05 "Hg
* Reported Sep 6 6:00 AM — Sep 21 6:30 AM, Constantine, Weather by CustomWeather, © 2014

Note: Actual official high and low records may vary slightly from our data, if they occured in-between our weather recording intervals... More about our weather records

Advertising

Constantine weather history for previous 24 hours

 ConditionsComfort  
Time TempWeatherWind HumidityBarometerVisibility
6:30 AM
Sep 21
68 °FClear.No wind49%30.21 "Hg5 mi
6:00 AM68 °FClear.No wind49%30.21 "Hg10 mi
5:30 AM68 °FClear.No wind49%30.21 "Hg10 mi
5:00 AM68 °FClear.No wind49%30.21 "Hg10 mi
4:30 AM70 °FClear.No wind46%30.21 "Hg10 mi
4:00 AM70 °FClear.No wind46%30.21 "Hg10 mi
3:30 AM70 °FClear.No wind46%30.24 "Hg10 mi
3:00 AM70 °FClear.No wind46%30.24 "Hg10 mi
2:30 AM72 °FClear.No wind44%30.24 "Hg10 mi
2:00 AM72 °FClear.No wind44%30.24 "Hg10 mi
1:30 AM73 °FClear.No wind41%30.24 "Hg10 mi
1:00 AM73 °FClear.No wind41%30.24 "Hg10 mi
12:30 AM73 °FPassing clouds.No wind41%30.24 "HgN/A
12:00 AM75 °FPassing clouds.No wind41%30.24 "HgN/A
11:30 PM
Sep 20
79 °FPassing clouds.No wind37%30.24 "HgN/A
11:00 PM79 °FPassing clouds.6 mph37%30.24 "HgN/A
10:30 PM81 °FPassing clouds.13 mph34%30.24 "HgN/A
9:30 PM81 °FPassing clouds.No wind34%30.21 "HgN/A
9:00 PM82 °FPassing clouds.No wind32%30.21 "HgN/A
8:30 PM84 °FPassing clouds.5 mph31%30.21 "HgN/A
8:00 PM84 °FPassing clouds.6 mph31%30.21 "HgN/A
7:30 PM84 °FPartly cloudy.No wind31%30.18 "Hg5 mi
7:00 PM84 °FPartly cloudy.No wind31%30.18 "Hg5 mi
6:30 PM86 °FBroken clouds.6 mph31%30.15 "Hg5 mi
2:30 PM95 °FClear.5 mph22%30.15 "Hg5 mi
2:00 PM95 °FClear.5 mph22%30.15 "Hg5 mi
1:30 PM95 °FClear.5 mph22%30.15 "Hg5 mi
1:00 PM95 °FClear.6 mph22%30.18 "Hg5 mi
12:30 PM95 °FClear.5 mph23%30.18 "Hg5 mi
12:00 PM93 °FClear.5 mph24%30.18 "Hg5 mi
11:30 AM93 °FClear.5 mph24%30.18 "Hg5 mi
11:00 AM91 °FClear.5 mph28%30.21 "Hg5 mi
10:30 AM90 °FClear.3 mph29%30.18 "Hg5 mi
10:00 AM88 °FClear.5 mph31%30.18 "Hg5 mi
9:30 AM82 °FClear.6 mph37%30.21 "Hg5 mi
9:00 AM81 °FClear.5 mph42%30.18 "Hg5 mi
8:30 AM81 °FClear.No wind42%30.18 "Hg5 mi
8:00 AM73 °FClear.No wind53%30.15 "Hg5 mi
7:30 AM73 °FClear.3 mph50%30.18 "Hg5 mi
7:00 AM72 °FClear.3 mph53%30.15 "Hg5 mi
Weather by CustomWeather, © 2014

See weather overviewHow to use our weather pages